Location: B?dargowo
(53.3916°N, 14.4413°E)
Time: 09:16:31
(UTC+00:00)

Cosmos 1626 Rocket - Pass Details

Date: 05 February 2023
Orbit: 603 x 629 km, 82.5° (Epoch: 19 March)

Event Time Altitude Azimuth Distance (km) Brightness Sun altitude
Rises 18:13:06 0° 183° (S) 2,846 7.0 -21.1°
Reaches altitude 10° 18:15:18 10° 181° (S) 1,949 6.1 -21.4°
Maximum altitude 18:19:35 71° 98° (E) 647 3.3 -22.1°
Enters shadow 18:19:58 66° 59° (ENE) 667 3.4 -22.1°
